Погода в Катании

Италия     37°31′31″N   15°03′58″E
темп.,
°C
ветер,
м/с
пор.,
м/с
влажн.,
%
обл.,
%
осадки,
мм/ч
давл.,
гПа
погр.,
м
15 мая, сб
сб1523:00+18з484545 0.0 1013511
02:00+17зсз4105799 0.1 1012636
05:00+16з4973100 0.1 1011437
08:00+18зсз564578 0.1 1012741
11:00+23зсз4622100 0.0 10131660
14:00+24юв142980 0.0 10131441
17:00+23з252247 0.0 10131343
20:00+19сз353646 0.0 1014442
16 мая, вс
вс1623:00+16з134423 0.0 1016198
02:00+15зсз13416 0.0 1015110
05:00+14зсз12444 0.0 101564
08:00+18з1237100 0.0 1015282
11:00+25зюз352630 0.0 10141134
14:00+25вюв462969 0.0 1014873
17:00+25в553086 0.0 1013469
20:00+20вюв134396 0.0 1014147
17 мая, пн
пн1723:00+19з23465 0.0 101479
02:00+18зсз35492 0.0 1013114
05:00+18зсз35470 0.0 1013101
08:00+23з24340 0.0 1013232
11:00+31з35183 0.0 10131338
14:00+32юв36180 0.0 10121664
17:00+29в56240 0.0 1012479
20:00+24в23360 0.0 1013137
18 мая, вт
вт1823:00+22зсз22410 0.0 101564
02:00+21зсз24380 0.0 101477
05:00+20сз00400 0.0 101411
08:00+24ююв11334 0.0 1015186
11:00+29юв22243 0.0 1015659
14:00+30вюв652597 0.0 1014773
17:00+28вюв55325 0.0 1014657
20:00+23юв23493 0.0 1015200
19 мая, ср
ср1923:00+20зюз12590 0.0 1016172
02:00+19ююз11593 0.0 101654
05:00+18зсз11540 0.0 101550
08:00+21юз123882 0.0 1017391
11:00+26ююв1329100 0.0 10171269
14:00+29ююв252270 0.0 10151820
17:00+25ююв1219100 0.0 1016856
20:00+19юв23369 0.0 1017364